When you browse on this site, cookies collect data to enhance your experience and personalize the content and advertising you see.
Visit our Privacy Policy to learn more. By continuing to use the site, you agree to this use of cookies and data.
  • In Czech Republic
  • List of Countries
  • For 7 days
  • Water Temperature
  • Weather Map
  • Weather Widgets
  • user-avatar
    Login

    Hourly Weather Kadrali

    Today, 27 May, Wednesday

    Time Temperature Precipitation Wind Pressure Humidity
    00:00 +13°C° 0 mm 5 mps 757 mmHg 76%
    01:00 +13°C° 0 mm 6 mps 757 mmHg 76%
    02:00 +12°C° 0.1 mm 5 mps 756 mmHg 79%
    03:00 +12°C° 0.1 mm 4 mps 756 mmHg 81%
    04:00 +12°C° 0 mm 5 mps 756 mmHg 85%
    05:00 +12°C° 1.4 mm 5 mps 755 mmHg 85%
    06:00 +13°C° 1.4 mm 6 mps 754 mmHg 85%
    07:00 +14°C° 1.4 mm 7 mps 754 mmHg 85%
    08:00 +15°C° 0.5 mm 7 mps 753 mmHg 82%
    09:00 +16°C° 0.5 mm 8 mps 753 mmHg 79%
    10:00 +18°C° 0.5 mm 9 mps 753 mmHg 75%
    11:00 +20°C° 0 mm 8 mps 752 mmHg 72%
    12:00 +22°C° 0 mm 8 mps 752 mmHg 69%
    13:00 +24°C° 0 mm 7 mps 751 mmHg 66%
    14:00 +24°C° 0 mm 6 mps 751 mmHg 68%
    15:00 +25°C° 0 mm 5 mps 751 mmHg 70%
    16:00 +26°C° 0 mm 4 mps 751 mmHg 72%
    17:00 +25°C° 0.2 mm 4 mps 751 mmHg 76%
    18:00 +25°C° 0.2 mm 3 mps 750 mmHg 79%
    19:00 +24°C° 0.2 mm 2 mps 750 mmHg 83%
    20:00 +21°C° 0.1 mm 3 mps 751 mmHg 86%
    21:00 +19°C° 0.1 mm 4 mps 751 mmHg 90%
    22:00 +16°C° 0.1 mm 5 mps 751 mmHg 93%
    23:00 +15°C° 0 mm 5 mps 751 mmHg 92%

    Tomorrow, 28 May, Thursday

    Time Temperature Precipitation Wind Pressure Humidity
    00:00 +15°C° 0 mm 5 mps 752 mmHg 92%
    01:00 +14°C° 0 mm 5 mps 752 mmHg 91%
    02:00 +13°C° 0 mm 5 mps 752 mmHg 90%
    03:00 +13°C° 0 mm 5 mps 753 mmHg 90%
    04:00 +12°C° 0 mm 4 mps 754 mmHg 89%
    05:00 +12°C° 0 mm 5 mps 754 mmHg 88%
    06:00 +12°C° 0 mm 5 mps 754 mmHg 87%
    07:00 +13°C° 0 mm 5 mps 754 mmHg 86%
    08:00 +13°C° 0 mm 5 mps 755 mmHg 80%
    09:00 +14°C° 0 mm 5 mps 755 mmHg 75%
    10:00 +15°C° 0 mm 5 mps 755 mmHg 70%
    11:00 +17°C° 0 mm 4 mps 755 mmHg 66%
    12:00 +18°C° 0 mm 4 mps 755 mmHg 63%
    13:00 +19°C° 0 mm 4 mps 755 mmHg 59%
    14:00 +19°C° 0 mm 4 mps 755 mmHg 59%
    15:00 +20°C° 0 mm 4 mps 755 mmHg 58%
    16:00 +20°C° 0 mm 4 mps 756 mmHg 57%
    17:00 +19°C° 0 mm 4 mps 756 mmHg 61%
    18:00 +19°C° 0 mm 3 mps 756 mmHg 65%
    19:00 +19°C° 0 mm 3 mps 756 mmHg 70%
    20:00 +17°C° 0 mm 2 mps 756 mmHg 74%
    21:00 +15°C° 0 mm 2 mps 756 mmHg 79%
    22:00 +14°C° 0 mm 2 mps 756 mmHg 84%
    23:00 +13°C° 0 mm 2 mps 756 mmHg 86%

    Day after tomorrow, 29 May, Friday

    Time Temperature Precipitation Wind Pressure Humidity
    00:00 +13°C° 0 mm 2 mps 757 mmHg 87%
    01:00 +12°C° 0 mm 2 mps 757 mmHg 89%
    02:00 +12°C° 0 mm 2 mps 757 mmHg 89%
    03:00 +12°C° 0 mm 1 mps 757 mmHg 90%
    04:00 +11°C° 0 mm 1 mps 757 mmHg 90%
    05:00 +13°C° 0 mm 1 mps 757 mmHg 85%
    06:00 +14°C° 0 mm 1 mps 757 mmHg 80%
    07:00 +16°C° 0 mm 1 mps 757 mmHg 75%
    08:00 +18°C° 0 mm 1 mps 757 mmHg 69%
    09:00 +20°C° 0 mm 1 mps 757 mmHg 62%
    10:00 +21°C° 0 mm 1 mps 757 mmHg 56%
    11:00 +21°C° 0 mm 2 mps 757 mmHg 54%
    12:00 +23°C° 0 mm 2 mps 757 mmHg 51%
    13:00 +23°C° 0 mm 2 mps 757 mmHg 49%
    14:00 +24°C° 0 mm 2 mps 756 mmHg 49%
    15:00 +24°C° 0 mm 2 mps 756 mmHg 49%
    16:00 +24°C° 0 mm 2 mps 756 mmHg 49%
    17:00 +24°C° 0 mm 2 mps 755 mmHg 53%
    18:00 +23°C° 0 mm 1 mps 755 mmHg 58%
    19:00 +22°C° 0 mm 1 mps 755 mmHg 63%
    20:00 +21°C° 0 mm 1 mps 755 mmHg 68%
    21:00 +19°C° 0 mm 1 mps 755 mmHg 72%
    22:00 +16°C° 0 mm 1 mps 755 mmHg 77%
    23:00 +16°C° 0 mm 1 mps 755 mmHg 78%

    30 May, Saturday

    Time Temperature Precipitation Wind Pressure Humidity
    00:00 +14°C° 0 mm 0 mps 755 mmHg 79%
    01:00 +14°C° 0 mm 0 mps 754 mmHg 81%
    02:00 +14°C° 0 mm 1 mps 754 mmHg 81%
    03:00 +14°C° 0 mm 1 mps 754 mmHg 81%
    04:00 +14°C° 0 mm 1 mps 754 mmHg 82%
    05:00 +15°C° 0 mm 1 mps 754 mmHg 78%
    06:00 +16°C° 0 mm 1 mps 754 mmHg 75%
    07:00 +17°C° 0 mm 0 mps 754 mmHg 72%
    08:00 +20°C° 0 mm 1 mps 754 mmHg 68%
    09:00 +22°C° 0 mm 1 mps 754 mmHg 63%
    10:00 +23°C° 0 mm 1 mps 754 mmHg 59%
    11:00 +24°C° 0 mm 1 mps 753 mmHg 57%
    12:00 +25°C° 0 mm 2 mps 753 mmHg 54%
    13:00 +25°C° 0 mm 2 mps 753 mmHg 51%
    14:00 +25°C° 0 mm 2 mps 753 mmHg 53%
    15:00 +25°C° 0 mm 2 mps 752 mmHg 54%
    16:00 +25°C° 0 mm 2 mps 752 mmHg 55%
    17:00 +24°C° 0 mm 2 mps 752 mmHg 60%
    18:00 +22°C° 0 mm 3 mps 751 mmHg 66%
    19:00 +22°C° 0 mm 3 mps 751 mmHg 71%
    20:00 +20°C° 0 mm 3 mps 751 mmHg 74%
    21:00 +18°C° 0 mm 3 mps 751 mmHg 76%
    22:00 +15°C° 0 mm 4 mps 751 mmHg 79%
    23:00 +14°C° 0 mm 3 mps 751 mmHg 80%

    31 May, Sunday

    Time Temperature Precipitation Wind Pressure Humidity
    00:00 +13°C° 0 mm 3 mps 750 mmHg 81%
    01:00 +13°C° 0 mm 2 mps 750 mmHg 82%
    02:00 +13°C° 0 mm 2 mps 750 mmHg 85%
    03:00 +11°C° 0 mm 3 mps 750 mmHg 88%
    04:00 +11°C° 0 mm 3 mps 749 mmHg 91%
    05:00 +12°C° 0 mm 3 mps 749 mmHg 86%
    06:00 +13°C° 0 mm 4 mps 749 mmHg 80%
    07:00 +14°C° 0 mm 5 mps 748 mmHg 75%
    08:00 +15°C° 0 mm 5 mps 748 mmHg 69%
    09:00 +16°C° 0 mm 5 mps 748 mmHg 64%
    10:00 +17°C° 0 mm 5 mps 747 mmHg 58%
    11:00 +17°C° 0 mm 5 mps 747 mmHg 57%
    12:00 +19°C° 0 mm 5 mps 746 mmHg 56%
    13:00 +19°C° 0 mm 5 mps 746 mmHg 55%
    14:00 +19°C° 0 mm 6 mps 745 mmHg 56%
    15:00 +17°C° 0 mm 6 mps 745 mmHg 57%
    16:00 +17°C° 0 mm 6 mps 744 mmHg 58%
    17:00 +16°C° 0.1 mm 6 mps 744 mmHg 61%
    18:00 +15°C° 0.1 mm 5 mps 743 mmHg 64%
    19:00 +14°C° 0.1 mm 5 mps 743 mmHg 68%
    20:00 +13°C° 0.1 mm 5 mps 743 mmHg 68%
    21:00 +12°C° 0.1 mm 5 mps 743 mmHg 68%
    22:00 +12°C° 0.1 mm 4 mps 742 mmHg 68%
    23:00 +10°C° 0 mm 5 mps 742 mmHg 69%

    1 June, Monday

    Time Temperature Precipitation Wind Pressure Humidity
    00:00 +10°C° 0 mm 5 mps 742 mmHg 70%
    01:00 +10°C° 0 mm 5 mps 742 mmHg 71%
    02:00 +9°C° 0 mm 5 mps 742 mmHg 71%
    03:00 +8°C° 0 mm 5 mps 742 mmHg 71%
    04:00 +7°C° 0 mm 5 mps 742 mmHg 71%
    05:00 +7°C° 0 mm 6 mps 743 mmHg 70%
    06:00 +8°C° 0 mm 6 mps 743 mmHg 68%
    07:00 +8°C° 0 mm 6 mps 744 mmHg 67%
    08:00 +9°C° 0 mm 6 mps 744 mmHg 64%
    09:00 +10°C° 0 mm 6 mps 744 mmHg 62%
    10:00 +12°C° 0 mm 5 mps 744 mmHg 59%
    11:00 +13°C° 0 mm 5 mps 745 mmHg 58%
    12:00 +13°C° 0 mm 5 mps 745 mmHg 56%
    13:00 +14°C° 0 mm 5 mps 745 mmHg 55%
    14:00 +14°C° 0 mm 5 mps 745 mmHg 54%
    15:00 +14°C° 0 mm 5 mps 746 mmHg 54%
    16:00 +13°C° 0 mm 5 mps 746 mmHg 54%
    17:00 +13°C° 0 mm 5 mps 746 mmHg 57%
    18:00 +12°C° 0 mm 4 mps 746 mmHg 60%
    19:00 +12°C° 0 mm 4 mps 747 mmHg 63%
    20:00 +10°C° 0 mm 3 mps 747 mmHg 67%
    21:00 +8°C° 0 mm 3 mps 748 mmHg 71%
    22:00 +7°C° 0 mm 2 mps 748 mmHg 75%
    23:00 +6°C° 0 mm 2 mps 748 mmHg 77%
    Show more